This is the latest recevied weather packets stored in our database for station/object KI6PPU. If no packets are shown the sender has not sent any weather packets the latest 10 day(s).
| Time | Temp. | Humidity | Pressure | Rain* | Wind** | Luminosity | Snow |
|---|---|---|---|---|---|---|---|
| 1778091167 | 17.78° C | 78% | 1023 hPa | 0 mm | - | 235 W/m² | - |
| 1778090864 | 17.78° C | 78% | 1023.3 hPa | 0 mm | - | 234 W/m² | - |
| 1778090560 | 17.78° C | 77% | 1023 hPa | 0 mm | - | 237 W/m² | - |
| 1778090257 | 17.78° C | 74% | 1023.1 hPa | 0 mm | - | 250 W/m² | - |
| 1778089953 | 18.33° C | 77% | 1023.1 hPa | 0 mm | - | 284 W/m² | - |
| 1778089651 | 18.33° C | 75% | 1023.1 hPa | 0 mm | - | 324 W/m² | - |
| 1778089347 | 17.78° C | 78% | 1023.2 hPa | 0 mm | - | 365 W/m² | - |
| 1778089046 | 17.78° C | 81% | 1023 hPa | 0 mm | - | 269 W/m² | - |
| 1778088742 | 17.78° C | 80% | 1023.1 hPa | 0 mm | - | 296 W/m² | - |
| 1778088439 | 17.22° C | 80% | 1023.2 hPa | 0 mm | - | 309 W/m² | - |
| 1778088136 | 17.22° C | 81% | 1023 hPa | 0 mm | - | 317 W/m² | - |
| 1778087833 | 17.22° C | 80% | 1023 hPa | 0 mm | - | 317 W/m² | - |
| 1778087530 | 17.22° C | 79% | 1023.1 hPa | 0 mm | - | 280 W/m² | - |
| 1778087228 | 17.22° C | 81% | 1023.1 hPa | 0 mm | - | 262 W/m² | - |
| 1778086924 | 16.67° C | 80% | 1023.1 hPa | 0 mm | - | 232 W/m² | - |
| 1778086623 | 16.67° C | 81% | 1023 hPa | 0 mm | - | 212 W/m² | - |
| 1778086319 | 16.67° C | 85% | 1023 hPa | 0 mm | - | 192 W/m² | - |
| 1778086016 | 16.11° C | 83% | 1023.1 hPa | 0 mm | - | 174 W/m² | - |
| 1778085714 | 16.11° C | 84% | 1023.1 hPa | 0 mm | - | 176 W/m² | - |
| 1778085410 | 16.11° C | 86% | 1022.9 hPa | 0 mm | - | 176 W/m² | - |
| 1778085105 | 16.11° C | 84% | 1022.9 hPa | 0 mm | - | 171 W/m² | - |
| 1778084801 | 16.11° C | 83% | 1023 hPa | 0 mm | - | 164 W/m² | - |
| 1778084499 | 16.11° C | 84% | 1023 hPa | 0 mm | - | 160 W/m² | - |
| 1778084196 | 16.11° C | 84% | 1022.9 hPa | 0 mm | - | 165 W/m² | - |
| 1778083893 | 15° C | 84% | 1022.9 hPa | 0 mm | - | 171 W/m² | - |
* Rain latest hour (hover to see other rain measurements)
** Current wind speed in m/s (hover to see current wind gust speed)